Location: Prague
(50.0830°N, 14.4670°E)
Time: 09:01:07
(UTC+02:00)

STARLINK-1673 - Pass Details

Date: 22 September 2020
Orbit: 549 x 550 km, 53.0° (Epoch: 24 October)

Event Time Altitude Azimuth Distance (km) Brightness Sun altitude
Exits shadow 05:32:08 15° 289° (WNW) 1,574 5.5 -13.0°
Maximum altitude 05:35:34 61° 8° (N) 652 4.1 -12.4°
Drops below altitude 10° 05:39:48 10° 89° (E) 1,872 7.7 -11.8°
Sets 05:42:05 0° 93° (E) 2,769 8.8 -11.4°
